Hurghada, Egypt

3:59 AM EET on October 21, 2018 (GMT +0200)
Hurghada

Weather History for HEGN - August, 2018

Change the Weather History Date:

Saturday, August 11, 2018

  Actual Average Record
Temperature  
Mean Temperature 94 °F -  
Max Temperature 104 °F 94 °F 108 °F (2015)
Min Temperature 84 °F 80 °F 69 °F (2007)
Cooling Degree Days 29    
Growing Degree Days 44 (Base 50)    
Moisture  
Dew Point 49 °F    
Average Humidity 20    
Maximum Humidity 37    
Minimum Humidity 5    
Precipitation  
Precipitation 0.00 in - - ()
Sea Level Pressure  
Sea Level Pressure 29.70 in    
Wind  
Wind Speed 10 mph ()    
Max Wind Speed 21 mph    
Max Gust Speed -    
Visibility 6.0 miles    
Events      
Averages and records for this station are not official NWS values.
T = Trace of Precipitation, MM = Missing Value Source: Averaged Metar Reports

Daily Weather History Graph

Daily Weather History Graph

Search for Another Location

Airport or City:

Astronomy

Aug. 11, 2018 Rise Set
Actual Time 5:14 AM EET 6:26 PM EET
Civil Twilight 4:49 AM EET 6:50 PM EET
Nautical Twilight 4:20 AM EET 7:19 PM EET
Astronomical Twilight 3:50 AM EET 7:49 PM EET
Moon 4:58 AM EET (8/11) 6:39 PM EET (8/11)
Length of Visible Light 14h 01m
Length of Day
13h 11m
New Moon, 0% of the Moon is Illuminated
Aug 11
New Moon
Aug 18
First Quarter
Aug 26
Full
Sep 3
Last Quarter
Sep 9
New

Hourly Weather History & Observations

Time (EET) Temp. Heat Index Dew Point Humidity Pressure Visibility Wind Dir Wind Speed Gust Speed Precip Events Conditions
12:00 AM 91.4 °F - 50.0 °F 24% 29.71 in - WNW 8.1 mph - N/A   Clear
2:00 AM 90 °F - 48 °F 15% 29.70 in 6 mi NW 11.5 mph - -  
2:00 AM 89.6 °F - 48.2 °F 24% 29.68 in - NW 11.5 mph - N/A   Clear
3:00 AM 87.8 °F - 48.2 °F 25% 29.68 in - NNW 3.5 mph - N/A   Clear
5:00 AM 86 °F - 56 °F 26% 29.71 in 6 mi NNW 8.1 mph - -  
5:00 AM 86.0 °F 84.9 °F 57.2 °F 37% 29.71 in - NNW 8.1 mph - N/A   Clear
6:00 AM 84.2 °F - 51.8 °F 33% 29.71 in - NW 5.8 mph - N/A   Clear
7:00 AM 87.8 °F - 51.8 °F 29% 29.71 in - NNW 8.1 mph - N/A   Clear
8:00 AM 92 °F - 57 °F 21% 29.74 in 6 mi North 11.5 mph - -  
8:00 AM 91.4 °F 89.9 °F 57.2 °F 31% 29.74 in - North 11.5 mph - N/A   Clear
9:00 AM 95.0 °F - 50.0 °F 22% 29.74 in - North 16.1 mph - N/A   Clear
10:00 AM 95.0 °F 92.7 °F 53.6 °F 25% 29.74 in - North 19.6 mph - N/A   Clear
11:00 AM 97 °F - 60 °F 20% 29.73 in 6 mi North 20.7 mph - -  
12:00 PM 98.6 °F 99.4 °F 60.8 °F 29% 29.71 in - NNE 18.4 mph - N/A   Clear
1:00 PM 100.4 °F 98.8 °F 55.4 °F 22% 29.68 in - NNE 17.3 mph - N/A   Clear
2:00 PM 102 °F - 56 °F 14% 29.68 in 6 mi NNE 17.3 mph - -  
2:00 PM 102.2 °F 100.9 °F 55.4 °F 21% 29.65 in - NNE 17.3 mph - N/A   Clear
3:00 PM 102.2 °F - 50.0 °F 17% 29.65 in - NNE 15.0 mph - N/A   Clear
4:00 PM 104.0 °F - 44.6 °F 13% 29.65 in - North 15.0 mph - N/A   Clear
5:00 PM 102 °F - 45 °F 8% 29.67 in 6 mi North 11.5 mph - -  
5:00 PM 102.2 °F - 44.6 °F 14% 29.65 in - North 11.5 mph - N/A   Clear
6:00 PM 100.4 °F - 44.6 °F 15% 29.65 in - North 10.4 mph - N/A   Clear
7:00 PM 98.6 °F - 41.0 °F 14% 29.68 in - North 11.5 mph - N/A   Clear
8:00 PM 98 °F - 34 °F 5% 29.69 in 6 mi NNW 10.4 mph - -  
8:00 PM 96.8 °F - 33.8 °F 11% 29.68 in - NNW 10.4 mph - N/A   Clear
10:00 PM 95.0 °F - 35.6 °F 12% 29.71 in - WNW 10.4 mph - N/A   Clear
11:00 PM 93 °F - 42 °F 9% 29.73 in 6 mi NW 11.5 mph - -  
11:00 PM 93.2 °F - 41.0 °F 16% 29.71 in - NW 11.5 mph - N/A   Clear